Satellite-Ground Cal/Val Site Overpasses Predictions

Prediction of Satellite NPP Overpassing Cal/Val Site: Antarctic Dome C

Ground Cal/Val Site Location: Latitude: -75.10, Longitude: 123.35; Satellite-Ground Site NADIR distance within 100 km.

Table of predicted overpasses for the next 14.0 days since TLE Epoch: 9/8/2017
Interval Starting Time Ending Time Minimum Distance Time Minimum Distance (km)
1 09/10/2017 14:55:17 09/10/2017 14:55:46 09/10/2017 14:55:32 22.13
2 09/11/2017 14:36:35 09/11/2017 14:36:50 09/11/2017 14:36:43 84.81
3 09/12/2017 07:38:09 09/12/2017 07:38:36 09/12/2017 07:38:22 34.53
4 09/13/2017 07:19:24 09/13/2017 07:19:43 09/13/2017 07:19:34 75.52
5 09/15/2017 15:01:40 09/15/2017 15:02:04 09/15/2017 15:01:52 59.36
6 09/16/2017 14:42:50 09/16/2017 14:43:15 09/16/2017 14:43:03 49.78
7 09/17/2017 07:44:32 09/17/2017 07:44:52 09/17/2017 07:44:42 69.91
8 09/18/2017 07:25:39 09/18/2017 07:26:06 09/18/2017 07:25:53 37.94
9 09/20/2017 15:08:08 09/20/2017 15:08:14 09/20/2017 15:08:11 97.30


NCC Satellite Cal/Val Overpasses Prediction Service
